Regional Weather Roundup
Issued by NWS

Home | Current Version | Previous Version | Text Only | Print | Product List | Glossary Off
Versions: 1 2 3 4 5 6 7 8 9 10 11 12 13 14 15 16 17 18 19 20 21 22 23 24 25 26 27 28 29 30 31 32 33 34 35 36 37 38 39 40 41 42 43 44 45 46 47 48 49 50

000
ASUS43 KMPX 030810
RWRMN
WEATHER ROUNDUP FOR MINNESOTA
NATIONAL WEATHER SERVICE TWIN CITIES/CHANHASSEN MN
300 AM CDT SUN MAY 03 2015


NOTE: "FAIR" INDICATES FEW OR NO CLOUDS BELOW 12,000 FEET WITH NO
SIGNIFICANT WEATHER AND/OR OBSTRUCTIONS TO VISIBILITY. N/A MEANS
CURRENT SKY AND/OR WEATHER CONDITIONS ARE NOT AVAILABLE.

MNZ060>063-068>070-030900-
   Twin Cities Metro

CITY           SKY/WX    TMP DP  RH WIND       PRES   REMARKS
TWIN CITIES    PTCLDY    62  51  67 S14       29.76F
ST PAUL        PTCLDY    59  51  75 SE10      29.77F
CRYSTAL        PTCLDY    62  51  67 S5        29.75R
BLAINE         PTCLDY    63  52  67 S9        29.76S
LAKEVILLE      CLEAR     55  50  82 S10       29.77F
EDEN PRAIRIE   CLEAR     60  51  72 S14       29.75F
SOUTH ST PAUL  PTCLDY    60  50  69 S6        29.77F
LAKE ELMO      FAIR      59  50  72 S13       29.78F
$$
MNZ001>005-007-008-013>017-022>024-027-028-030900-
   Northwest Minnesota

CITY           SKY/WX    TMP DP  RH WIND       PRES   REMARKS
BEMIDJI        CLEAR     59  46  60 SW7       29.64R
HALLOCK        CLEAR     50  39  66 N8        29.66R
ROSEAU         PTCLDY    52  43  71 N3        29.64R
WARROAD        PTCLDY    55  45  67 NW7       29.63R
THIEF RVR FALL PTCLDY    52  45  76 CALM      29.64R
CROOKSTON      PTCLDY    48  45  87 W7        29.65R
DETROIT LAKES  PTCLDY    61  52  72 SW9       29.67R
MOORHEAD       CLEAR     55  48  76 SW6       29.66R
PARK RAPIDS    PTCLDY    62  48  60 S14       29.66R
MAHNOMEN       FAIR      53  47  81 SW9       29.65R
$$
MNZ006-009>011-018-025>026-030900-
   North Central Minnesota

CITY           SKY/WX    TMP DP  RH WIND       PRES   REMARKS
BAUDETTE       CLEAR     51  43  74 CALM      29.62S
FLAG ISLAND    CLEAR     54  48  82 NW12      29.61R
INTL FALLS     CLOUDY    58  45  62 CALM      29.62S
WASKISH        CLEAR     59  45  58 CALM      29.62R
BIG FORK       MOCLDY    55  43  62 CALM      29.62F
LONGVILLE      MOCLDY    64  45  48 SW8       29.65S
GRAND RAPIDS   MOCLDY    57  39  51 S7        29.66R
CRANE LAKE     LGT RAIN  48  41  76 S6        29.62F
ORR            MOCLDY    63  39  42 S3        29.58F
COOK           CLOUDY    64  45  48 CALM      29.64R
WALKER         FAIR      64  46  50 SW15G26   29.64R
$$
MNZ012-019>021-037-030900-
   Northeast Minnesota

CITY           SKY/WX    TMP DP  RH WIND       PRES   REMARKS
DULUTH         CLOUDY    55  43  63 S7        29.69S
ELY            CLOUDY    59  39  47 S5        29.63F
HIBBING        CLOUDY    55  40  56 SE6       29.64F
EVELETH        CLOUDY    54  43  66 SW3       29.68R
DULUTH HARBOR  CLOUDY    43  39  87 E3        29.71R
TWO HARBORS    CLOUDY    52  45  76 CALM      29.67F
SILVER BAY     CLOUDY    45  41  87 CALM      29.67F
GRAND MARAIS     N/A     43  40  89 CALM      29.69S
G MARAIS ARPRT MOCLDY    43  36  75 CALM      29.70F
$$
MNZ029>031-032-039>041-046>048-054>057-064-030900-
   West Central Minnesota

CITY           SKY/WX    TMP DP  RH WIND       PRES   REMARKS
FERGUS FALLS   MOCLDY    59  52  77 S7        29.68S
WHEATON        MOCLDY    57  54  88 S6        29.70S
MORRIS         CLOUDY    63  55  77 SE15      29.66F
ALEXANDRIA     CLOUDY    61  51  70 VRB6      29.74R
ELBOW LAKE     CLOUDY    60  53  79 S3        29.69F
WADENA         MOCLDY    59  52  77 S9        29.68F
GLENWOOD       CLOUDY    61  55  82 S9        29.71F
APPLETON       CLOUDY    64  52  63 E10       29.68R
BENSON         CLOUDY    64  50  59 SE10      29.69F
ORTONVILLE     MOCLDY    61  52  72 CALM      29.70R
MADISON        MOCLDY    63  52  67 SE6       29.69F
WILLMAR        FAIR      63  54  72 CALM      29.77S
$$
MNZ033>034-036-042>043-049>051-058-059-030900-
   Central Minnesota

CITY           SKY/WX    TMP DP  RH WIND       PRES   REMARKS
ST CLOUD       MOCLDY    62  53  72 S13       29.75R
SAUK CENTRE    RAIN      61  52  72 S18       29.70F
PAYNESVILLE    MOCLDY    60  52  74 SE5       29.78R
AITKIN         CLOUDY    64  46  52 SW15G24   29.70R
PINE RIVER     CLOUDY    64  50  59 SW13G21   29.70S
BRAINERD       LGT RAIN  61  51  70 W14G24    29.78R
STAPLES        CLOUDY    59  52  77 S13       29.70F
LONG PRAIRIE   CLOUDY    61  46  59 CALM      29.74R
LITTLE FALLS   CLOUDY    64  45  48 S8        29.73R
LITCHFIELD     PTCLDY    61  54  77 W3        29.79R
BUFFALO        PTCLDY    60  50  69 CALM      29.78R
MAPLE LAKE     PTCLDY    60  53  78 SW3       29.78R
$$
MNZ037-044-045-052-053-030900-
   East Central Minnesota

CITY           SKY/WX    TMP DP  RH WIND       PRES   REMARKS
PRINCETON      MOCLDY    64  54  68 SW7       29.77R
MORA           MOCLDY    63  52  67 S16G24    29.74R
CAMBRIDGE      PTCLDY    64  52  63 S9        29.73S
RUSH CITY      PTCLDY    63  52  68 S5        29.74S
MOOSE LAKE     CLOUDY    64  48  55 SW12G18   29.67S
HINCKLEY       FAIR      63  52  67 S15       29.72R
CLOQUET        CLOUDY    54  41  62 CALM      29.68S
MCGREGOR       CLOUDY    63  46  55 SW7       29.69R
$$
MNZ071>073-080-081-089-090-097-098-030900-
   Southwest Minnesota

CITY           SKY/WX    TMP DP  RH WIND       PRES   REMARKS
MONTEVIDEO     MOCLDY    63  54  72 SE10      29.70F
GRANITE FALLS  MOCLDY    59  52  77 SE6       29.75F
CANBY          MOCLDY    66  53  63 CALM      29.72F
MARSHALL       MOCLDY    61  48  63 NE3       29.74R
REDWOOD FALLS  CLEAR     57  50  77 SE6       29.75R
OLIVIA         PTCLDY    57  48  72 S6        29.74R
PIPESTONE      CLOUDY    59  52  77 S8        29.72R
WINDOM         PTCLDY    55  52  88 SE3       29.74F
WORTHINGTON    CLOUDY    57  48  72 S14       29.73F
JACKSON        MOCLDY    57  50  77 S12       29.75F
TRACY          MOCLDY    59  52  77 S14G21    29.72S
SLAYTON        CLOUDY    55  51  87 S10       29.73S
$$
MNZ065>067-074>077-082>085-091>093-030900-
   South Central Minnesota

CITY           SKY/WX    TMP DP  RH WIND       PRES   REMARKS
MANKATO        CLEAR     55  46  71 SE14      29.78F
NEW ULM        CLEAR     57  52  82 S14       29.74F
ST JAMES       PTCLDY    57  52  82 SE9       29.76F
FAIRMONT       MOCLDY    55  46  71 SE8       29.76S
GLENCOE        CLEAR     60  53  79 S9G17     29.74F
FARIBAULT      CLEAR     57  50  77 S9        29.80F
OWATONNA       CLEAR     57  48  72 S12       29.81S
WASECA         CLEAR     55  50  82 SE8       29.81S
ALBERT LEA     PTCLDY    57  50  77 S13       29.80F
$$
MNZ078>079-086>088-094>096-030900-
   Southeast Minnesota

CITY           SKY/WX    TMP DP  RH WIND       PRES   REMARKS
ROCHESTER      CLEAR     55  49  80 S9        29.84F
RED WING       CLEAR     61  48  63 SE6       29.80F
STANTON        CLEAR     58  49  70 S7        29.78F
DODGE CENTER   CLEAR     55  50  82 S12       29.82S
WINONA         CLEAR     59  50  72 CALM      29.84F
AUSTIN         PTCLDY    55  50  82 S6        29.82F
PRESTON        CLEAR     55  50  81 S8        29.85F
$$
ABBREVIATIONS USED IN REMARKS
   TC - TEMPERATURES IN CELSIUS
  WCI - WIND CHILL INDEX
   HX - HEAT INDEX
  VSB - VISIBILITY
$$


USA.gov is the U.S. government's official web portal to all federal, state and local government web resources and services.